Location: Bremen
(53.0793°N, 8.8017°E)
Time: 01:32:16
(UTC+01:00)

deb Explorer IX - Pass Details

Date: 09 December 2021
Orbit: 544 x 1082 km, 38.8° (Epoch: 16 January)

Event Time Altitude Azimuth Distance (km) Brightness Sun altitude
Rises 10:43:26 0° 240° (WSW) 3,163 ? 11.4°
Reaches altitude 10° 10:47:03 10° 216° (SW) 2,117 ? 11.6°
Maximum altitude 10:49:35 14° 185° (S) 1,775 ? 11.7°
Drops below altitude 10° 10:51:58 10° 153° (SSE) 1,969 ? 11.8°
Sets 10:55:07 0° 127° (SE) 2,793 ? 12.0°
